Weather in İvrindi

Turkey     39°34′48″N   27°29′10″E
temp.,
°C
wind,
m/s
gust,
m/s
humid.,
%
clouds,
%
prec.,
mm/h
press.,
hPa
HPBL,
m
8 may, sat
sat800:00+17ssw2247100 0.0 101316
03:00+16sw2246100 0.0 101114
06:00+16wsw2242100 0.0 101111
09:00+21w1139100 0.0 1013207
12:00+23nnw3336100 0.1 1013765
15:00+23ene214872 0.3 1012552
18:00+21nne776212 0.0 1013755
21:00+13nne61082100 0.0 1016662
9 may, sun
sun900:00+13nne61182100 0.0 1018795
03:00+12nne7138899 0.1 1019731
06:00+11nne7128780 0.0 1020811
09:00+12nne8127898 0.1 1022850
12:00+16nne1113565 0.0 10221203
15:00+17nne11135233 0.0 10221277
18:00+14nne1014545 0.0 10221008
21:00+10nne715640 0.0 1023680
10 may, mon
mon1000:00+8nne412720 0.0 1023395
03:00+6n36850 0.0 1022156
06:00+4n36900 0.0 1022136
09:00+11nne711560 0.0 1022686
12:00+15nne910440 0.0 1021922
15:00+17nne910430 0.0 1020981
18:00+14nne912540 0.0 1019775
21:00+9n511650 0.0 1020370
11 may, tue
tue1100:00+6n35820 0.0 1020111
03:00+5n34910 0.0 101979
06:00+4n34930 0.0 101975
09:00+11nne610600 0.0 1019629
12:00+16nne810440 0.0 1017870
15:00+17nne810440 0.0 1016983
18:00+15nne811530 0.0 1016819
21:00+9n510680 0.0 1016319
12 may, wed
wed1200:00+6n34850 0.0 101673
03:00+5n23900 0.0 101534
06:00+5n22925 0.0 101526
09:00+11ne35700 0.0 1014459
12:00+17ne44500 0.0 1012748
15:00+21nne3244100 0.0 1010909
18:00+21ene2147100 0.0 1009605
21:00+14se116967 0.0 100911